| time (UTC) | temp C | wind direction | speed KPH | gust KPH | rain 1hr cm | rain 24hr cm | rain mn cm | humidity % | barometer mb |
| 20260505181554 | 13 | 215 | 1.6 | 1.6 | 0.00 | 0.00 | 0.00 | 96 | 1012.9 |
| 20260505175554 | 13 | 218 | 0.0 | 0.0 | 0.00 | 0.00 | 0.00 | 94 | 1012.9 |
| 20260505174554 | 14 | 201 | 0.0 | 0.0 | 0.00 | 0.00 | 0.00 | 92 | 1012.5 |
| 20260505173553 | 14 | 203 | 0.0 | 1.6 | 0.00 | 0.00 | 0.00 | 91 | 1012.9 |
| 20260505172554 | 15 | 202 | 0.0 | 0.0 | 0.00 | 0.00 | 0.00 | 88 | 1012.9 |
| 20260505171554 | 15 | 196 | 0.0 | 0.0 | 0.00 | 0.00 | 0.00 | 87 | 1012.9 |
| 20260505170554 | 15 | 178 | 0.0 | 4.8 | 0.00 | 0.00 | 0.00 | 86 | 1013.2 |
| 20260505164554 | 15 | 181 | 0.0 | 0.0 | 0.00 | 0.00 | 0.00 | 83 | 1013.2 |
| 20260505163557 | 15 | 190 | 0.0 | 1.6 | 0.00 | 0.00 | 0.00 | 83 | 1013.2 |
| 20260505162553 | 15 | 196 | 3.2 | 4.8 | 0.00 | 0.00 | 0.00 | 83 | 1013.2 |
| 20260505161554 | 16 | 173 | 1.6 | 3.2 | 0.00 | 0.00 | 0.00 | 82 | 1013.2 |
| 20260505160554 | 16 | 165 | 1.6 | 1.6 | 0.00 | 0.00 | 0.00 | 81 | 1013.2 |
| 20260505152554 | 16 | 167 | 3.2 | 3.2 | 0.00 | 0.00 | 0.00 | 80 | 1013.2 |
| 20260505151554 | 16 | 180 | 1.6 | 3.2 | 0.00 | 0.00 | 0.00 | 81 | 1013.2 |
| 20260505150553 | 16 | 123 | 1.6 | 3.2 | 0.00 | 0.00 | 0.00 | 82 | 1013.2 |
| 20260505140553 | 16 | 182 | 0.0 | 0.0 | 0.00 | 0.00 | 0.00 | 80 | 1013.5 |
| 20260505124553 | 15 | 185 | 1.6 | 1.6 | 0.00 | 0.00 | 1.40 | 89 | 1012.9 |
| 20260505122553 | 15 | 189 | 1.6 | 3.2 | 0.00 | 0.00 | 1.40 | 88 | 1012.9 |
| 20260505121553 | 15 | 203 | 0.0 | 0.0 | 0.00 | 0.00 | 1.40 | 85 | 1012.9 |
| 20260505120553 | 15 | 217 | 3.2 | 4.8 | 0.00 | 0.00 | 1.40 | 84 | 1012.9 |
| 20260505115553 | 15 | 174 | 1.6 | 1.6 | 0.00 | 0.00 | 1.40 | 81 | 1012.9 |
| 20260505113553 | 15 | 8 | 3.2 | 3.2 | 0.00 | 0.00 | 1.40 | 83 | 1012.9 |
| 20260505112553 | 16 | 201 | 0.0 | 1.6 | 0.00 | 0.00 | 1.40 | 87 | 1012.9 |
| 20260505111553 | 16 | 195 | 0.0 | 0.0 | 0.00 | 0.00 | 1.40 | 90 | 1012.9 |
| 20260505110553 | 15 | 199 | 0.0 | 0.0 | 0.00 | 0.00 | 1.40 | 93 | 1012.9 |
| 20260505101553 | 15 | 198 | 0.0 | 0.0 | 0.00 | 0.00 | 1.40 | 91 | 1012.9 |
| 20260505100553 | 15 | 26 | 3.2 | 3.2 | 0.00 | 0.00 | 1.40 | 92 | 1012.9 |
| 20260505095553 | 15 | 226 | 0.0 | 1.6 | 0.00 | 0.00 | 1.40 | 96 | 1012.9 |
| 20260505094553 | 15 | 191 | 1.6 | 3.2 | 0.00 | 0.00 | 1.40 | 96 | 1012.9 |
| 20260505092553 | 15 | 189 | 0.0 | 0.0 | 0.00 | 0.00 | 1.40 | 95 | 1012.5 |
| 20260505091553 | 15 | 197 | 0.0 | 0.0 | 0.00 | 0.00 | 1.40 | 96 | 1012.5 |
| 20260505085553 | 15 | 234 | 1.6 | 1.6 | 0.00 | 0.00 | 1.37 | 96 | 1012.9 |
| 20260505084553 | 15 | 192 | 0.0 | 0.0 | 0.00 | 0.00 | 1.37 | 95 | 1012.9 |
| 20260505083553 | 15 | 199 | 0.0 | 1.6 | 0.00 | 0.00 | 1.37 | 96 | 1012.5 |
| 20260505082553 | 15 | 193 | 1.6 | 1.6 | 0.00 | 0.00 | 1.37 | 96 | 1012.5 |
| 20260505081553 | 15 | 193 | 0.0 | 0.0 | 0.00 | 0.00 | 1.37 | 96 | 1012.5 |
| 20260505080553 | 15 | 184 | 0.0 | 0.0 | 0.00 | 0.00 | 1.37 | 95 | 1012.2 |
| 20260505075553 | 15 | 198 | 0.0 | 0.0 | 0.00 | 0.00 | 1.37 | 95 | 1012.5 |
| 20260505074553 | 15 | 181 | 0.0 | 0.0 | 0.00 | 0.00 | 1.37 | 94 | 1012.5 |
| 20260505073553 | 15 | 181 | 1.6 | 1.6 | 0.00 | 0.00 | 1.37 | 95 | 1012.2 |
| 20260505072553 | 15 | 197 | 0.0 | 0.0 | 0.00 | 0.00 | 1.37 | 96 | 1012.2 |
| 20260505071553 | 15 | 167 | 1.6 | 1.6 | 0.00 | 0.00 | 1.37 | 96 | 1012.2 |
| 20260505070553 | 14 | 187 | 0.0 | 1.6 | 0.00 | 0.00 | 1.37 | 96 | 1012.2 |
| 20260505065553 | 14 | 212 | 1.6 | 1.6 | 0.00 | 0.00 | 1.37 | 97 | 1012.2 |
| 20260505064553 | 14 | 215 | 0.0 | 0.0 | 0.00 | 0.00 | 1.37 | 95 | 1011.9 |
| 20260505063553 | 14 | 187 | 0.0 | 1.6 | 0.00 | 0.00 | 1.37 | 95 | 1011.5 |
| 20260505062553 | 14 | 201 | 0.0 | 0.0 | 0.00 | 0.00 | 1.37 | 94 | 1011.5 |
| 20260505061553 | 15 | 195 | 0.0 | 1.6 | 0.00 | 0.00 | 1.37 | 93 | 1011.5 |
| 20260505060553 | 15 | 157 | 0.0 | 1.6 | 0.00 | 0.00 | 1.37 | 97 | 1011.2 |
| 20260505055553 | 13 | 184 | 0.0 | 0.0 | 0.00 | 0.00 | 1.37 | 99 | 1011.2 |
| 20260505053553 | 13 | 195 | 0.0 | 0.0 | 0.00 | 0.00 | 1.37 | 98 | 1011.2 |
| 20260505052553 | 13 | 203 | 0.0 | 0.0 | 0.00 | 0.00 | 1.37 | 99 | 1011.2 |
| 20260505051553 | 13 | 210 | 0.0 | 0.0 | 0.00 | 0.00 | 1.37 | 99 | 1011.2 |
| 20260505050553 | 13 | 205 | 0.0 | 0.0 | 0.00 | 0.00 | 1.37 | 99 | 1010.8 |
| 20260505041553 | 13 | 220 | 1.6 | 1.6 | 0.00 | 0.00 | 1.37 | 99 | 1010.8 |
| 20260505040553 | 13 | 250 | 1.6 | 1.6 | 0.00 | 0.00 | 1.37 | 99 | 1011.2 |
| 20260505035553 | 13 | 213 | 0.0 | 0.0 | 0.00 | 0.00 | 1.37 | 99 | 1011.2 |
| 20260505033553 | 13 | 199 | 0.0 | 1.6 | 0.00 | 0.00 | 1.35 | 99 | 1011.2 |
| 20260505032553 | 13 | 195 | 0.0 | 0.0 | 0.00 | 0.00 | 1.35 | 99 | 1010.8 |
| 20260505031553 | 13 | 202 | 0.0 | 1.6 | 0.00 | 0.00 | 1.32 | 99 | 1010.8 |
| 20260505030553 | 13 | 176 | 3.2 | 3.2 | 0.00 | 0.00 | 1.30 | 98 | 1011.2 |
| 20260505025553 | 14 | 209 | 0.0 | 1.6 | 0.00 | 0.00 | 1.30 | 91 | 1011.2 |
| 20260505024553 | 13 | 93 | 3.2 | 4.8 | 0.00 | 0.00 | 1.19 | 98 | 1010.5 |
| 20260505023553 | 13 | 354 | 3.2 | 3.2 | 0.00 | 0.00 | 1.09 | 98 | 1011.9 |
| 20260505022553 | 13 | 210 | 0.0 | 1.6 | 0.00 | 0.00 | 0.97 | 98 | 1011.9 |
| 20260505021553 | 13 | 217 | 1.6 | 3.2 | 0.00 | 0.00 | 0.89 | 98 | 1012.2 |
| 20260505020553 | 13 | 207 | 1.6 | 1.6 | 0.00 | 0.00 | 0.74 | 96 | 1012.5 |
| 20260505015553 | 13 | 211 | 1.6 | 1.6 | 0.00 | 0.00 | 0.58 | 93 | 1012.5 |
| 20260505014553 | 14 | 207 | 4.8 | 4.8 | 0.00 | 0.00 | 0.51 | 90 | 1012.2 |
| 20260505013553 | 14 | 315 | 3.2 | 3.2 | 0.00 | 0.00 | 0.51 | 87 | 1011.9 |
| 20260505012553 | 15 | 347 | 14.5 | 17.7 | 0.00 | 0.00 | 0.48 | 83 | 1011.9 |
| 20260505011553 | 14 | 330 | 4.8 | 8.0 | 0.00 | 0.00 | 0.48 | 86 | 1012.2 |
| 20260505010553 | 14 | 8 | 6.4 | 11.3 | 0.00 | 0.00 | 0.43 | 85 | 1012.5 |
| 20260505005553 | 13 | 265 | 4.8 | 4.8 | 0.00 | 0.00 | 0.41 | 88 | 1012.9 |
| 20260505004553 | 13 | 308 | 4.8 | 6.4 | 0.00 | 0.00 | 0.33 | 88 | 1012.9 |
| 20260505003553 | 13 | 340 | 4.8 | 4.8 | 0.00 | 0.00 | 0.23 | 87 | 1013.5 |
| 20260505002553 | 13 | 216 | 0.0 | 1.6 | 0.00 | 0.00 | 0.13 | 90 | 1013.5 |
| 20260505001552 | 14 | 0 | 3.2 | 3.2 | 0.00 | 0.00 | 0.10 | 84 | 1013.5 |
| 20260505000553 | 14 | 290 | 4.8 | 4.8 | 0.00 | 0.00 | 0.08 | 84 | 1013.5 |
| 20260504235552 | 14 | 204 | 0.0 | 1.6 | 0.00 | 0.00 | 0.03 | 87 | 1013.9 |
| 20260504234553 | 14 | 186 | 0.0 | 1.6 | 0.00 | 0.00 | 0.00 | 83 | 1013.9 |
| 20260504233552 | 15 | 270 | 1.6 | 1.6 | 0.00 | 0.00 | 0.00 | 77 | 1013.5 |
| 20260504232552 | 15 | 48 | 3.2 | 9.7 | 0.00 | 0.00 | 0.00 | 76 | 1013.9 |
| 20260504231552 | 15 | 196 | 1.6 | 3.2 | 0.00 | 0.00 | 0.00 | 79 | 1013.9 |
| 20260504230553 | 15 | 15 | 6.4 | 14.5 | 0.00 | 0.00 | 0.00 | 77 | 1014.2 |
| 20260504225552 | 15 | 220 | 4.8 | 6.4 | 0.00 | 0.00 | 0.28 | 79 | 1014.2 |
| 20260504224552 | 15 | 294 | 4.8 | 8.0 | 0.00 | 0.00 | 0.28 | 78 | 1014.6 |
| 20260504223552 | 14 | 147 | 4.8 | 8.0 | 0.00 | 0.00 | 0.23 | 81 | 1014.2 |
| 20260504222553 | 13 | 225 | 3.2 | 4.8 | 0.00 | 0.00 | 0.23 | 87 | 1014.6 |
| 20260504221552 | 14 | 250 | 1.6 | 3.2 | 0.00 | 0.00 | 0.18 | 83 | 1014.9 |
| 20260504220552 | 15 | 234 | 3.2 | 4.8 | 0.00 | 0.00 | 0.13 | 76 | 1014.9 |
| 20260504215552 | 15 | 73 | 4.8 | 4.8 | 0.00 | 0.00 | 0.10 | 73 | 1014.9 |
| 20260504214552 | 15 | 3 | 9.7 | 16.1 | 0.00 | 0.00 | 0.10 | 76 | 1014.9 |
| 20260504213552 | 14 | 230 | 6.4 | 14.5 | 0.00 | 0.00 | 0.10 | 80 | 1015.2 |
| 20260504212552 | 15 | 27 | 9.7 | 11.3 | 0.00 | 0.00 | 0.08 | 77 | 1015.2 |
| 20260504211550 | 15 | 171 | 6.4 | 12.9 | 0.00 | 0.00 | 0.03 | 73 | 1015.9 |
| 20260504210550 | 16 | 7 | 3.2 | 4.8 | 0.00 | 0.00 | 0.00 | 66 | 1015.9 |
| 20260504205550 | 16 | 264 | 4.8 | 6.4 | 0.00 | 0.00 | 0.00 | 68 | 1015.9 |
| 20260504204550 | 16 | 226 | 1.6 | 1.6 | 0.00 | 0.00 | 0.00 | 68 | 1015.9 |
| 20260504203550 | 16 | 152 | 4.8 | 4.8 | 0.00 | 0.00 | 0.00 | 69 | 1015.9 |
| 20260504202550 | 16 | 249 | 8.0 | 8.0 | 0.00 | 0.00 | 0.00 | 68 | 1015.9 |
| 20260504201550 | 15 | 288 | 4.8 | 4.8 | 0.00 | 0.00 | 0.00 | 70 | 1015.9 |
| 20260504200550 | 16 | 243 | 4.8 | 16.1 | 0.00 | 0.00 | 0.00 | 69 | 1015.6 |
| 20260504195550 | 15 | 141 | 6.4 | 6.4 | 0.00 | 0.00 | 0.00 | 73 | 1015.6 |
| 20260504194550 | 15 | 133 | 6.4 | 6.4 | 0.00 | 0.00 | 0.00 | 71 | 1015.6 |
| 20260504193550 | 16 | 349 | 3.2 | 6.4 | 0.00 | 0.00 | 0.00 | 70 | 1015.6 |
| 20260504192550 | 16 | 47 | 11.3 | 16.1 | 0.00 | 0.00 | 0.00 | 67 | 1015.9 |
| 20260504191550 | 16 | 15 | 1.6 | 4.8 | 0.00 | 0.00 | 0.00 | 65 | 1015.9 |
| 20260504190550 | 16 | 269 | 3.2 | 4.8 | 0.00 | 0.00 | 0.00 | 62 | 1015.9 |
| 20260504185550 | 16 | 132 | 6.4 | 9.7 | 0.00 | 0.00 | 0.00 | 61 | 1015.9 |
| 20260504184550 | 17 | 4 | 3.2 | 3.2 | 0.00 | 0.00 | 0.00 | 60 | 1015.9 |
| 20260504183550 | 17 | 353 | 3.2 | 3.2 | 0.00 | 0.00 | 0.00 | 57 | 1015.9 |
| 20260504182550 | 17 | 0 | 8.0 | 14.5 | 0.00 | 0.00 | 0.00 | 56 | 1015.6 |